WIF7006 EGPB-ENBR

Flight info

Callsign WIF7006
Flight time 0h 48m
Altitude 23000
Route WAFIL PEPIN MODNI MODN2N
Aircraft DH8D/M-VGDW/C

Departure

Time 2026-05-03 20:56
Airport Sumburgh Airport (EGPB)

Arrival

Time 2026-05-03 21:44
Airport Bergen Airport, Flesland (ENBR)
Time Latitude Longitude Altitude Speed Heading
2026-05-03 20:32 59.87650 -1.28934 27 ft 0 kts 324°
2026-05-03 20:51 59.87655 -1.28941 27 ft 3 kts 321°
2026-05-03 20:52 59.87672 -1.28980 27 ft 5 kts 305°
2026-05-03 20:52 59.87703 -1.29081 26 ft 9 kts 306°
2026-05-03 20:52 59.87747 -1.29163 23 ft 6 kts 324°
2026-05-03 20:52 59.87783 -1.29216 22 ft 7 kts 323°
2026-05-03 20:53 59.87821 -1.29274 21 ft 6 kts 324°
2026-05-03 20:53 59.87863 -1.29332 20 ft 9 kts 324°
2026-05-03 20:53 59.87939 -1.29416 18 ft 15 kts 356°
2026-05-03 20:53 59.88031 -1.29310 20 ft 16 kts 34°
2026-05-03 20:54 59.88137 -1.29164 21 ft 18 kts 42°
2026-05-03 20:54 59.88179 -1.28832 26 ft 10 kts 84°
2026-05-03 20:54 59.88184 -1.28697 27 ft 10 kts 82°
2026-05-03 20:55 59.88195 -1.28523 24 ft 13 kts 83°
2026-05-03 20:55 59.88216 -1.28341 20 ft 15 kts 64°
2026-05-03 20:55 59.88212 -1.28269 18 ft 3 kts 247°
2026-05-03 20:55 59.88211 -1.28272 18 ft 0 kts 255°
2026-05-03 20:56 59.88211 -1.28280 19 ft 0 kts 259°
2026-05-03 20:56 59.88194 -1.28571 25 ft 62 kts 264°
2026-05-03 20:56 59.88114 -1.29985 77 ft 128 kts 264°
2026-05-03 20:56 59.88002 -1.31710 786 ft 128 kts 263°
2026-05-03 20:57 59.87790 -1.33414 1433 ft 137 kts 243°
2026-05-03 20:57 59.86961 -1.34376 1996 ft 152 kts 191°
2026-05-03 20:57 59.85959 -1.33482 2458 ft 177 kts 139°
2026-05-03 20:57 59.85329 -1.31192 2853 ft 197 kts 110°
2026-05-03 20:58 59.85139 -1.28475 3462 ft 201 kts 89°
2026-05-03 20:58 59.85386 -1.25756 4063 ft 203 kts 82°
2026-05-03 20:58 59.85609 -1.22995 4705 ft 204 kts 74°
2026-05-03 20:58 59.86190 -1.20453 5286 ft 205 kts 52°
2026-05-03 20:59 59.86989 -1.18137 5893 ft 207 kts 56°
2026-05-03 20:59 59.87686 -1.15619 6515 ft 210 kts 62°
2026-05-03 20:59 59.88282 -1.12950 7147 ft 213 kts 67°
2026-05-03 20:59 59.88797 -1.10184 7786 ft 215 kts 70°
2026-05-03 21:00 59.89243 -1.07389 8419 ft 216 kts 73°
2026-05-03 21:00 59.89381 -1.06441 8632 ft 217 kts 73°
2026-05-03 21:00 59.90020 -1.01566 9718 ft 220 kts 76°
2026-05-03 21:00 59.90362 -0.98641 10363 ft 221 kts 77°
2026-05-03 21:01 59.90690 -0.95634 11021 ft 222 kts 78°
2026-05-03 21:01 59.90999 -0.92651 11665 ft 223 kts 78°
2026-05-03 21:01 59.91302 -0.89612 12308 ft 224 kts 79°
2026-05-03 21:01 59.91593 -0.86611 12924 ft 224 kts 79°
2026-05-03 21:02 59.91880 -0.83576 13524 ft 225 kts 79°
2026-05-03 21:02 59.92164 -0.80507 14103 ft 224 kts 80°
2026-05-03 21:02 59.92442 -0.77458 14651 ft 224 kts 80°
2026-05-03 21:02 59.92717 -0.74408 15172 ft 224 kts 81°
2026-05-03 21:03 59.92990 -0.71357 15658 ft 225 kts 81°
2026-05-03 21:03 59.93265 -0.68249 16006 ft 233 kts 81°
2026-05-03 21:03 59.93550 -0.65019 16420 ft 237 kts 81°
2026-05-03 21:03 59.93834 -0.61782 16849 ft 240 kts 81°
2026-05-03 21:04 59.94120 -0.58510 17287 ft 242 kts 81°
2026-05-03 21:04 59.94410 -0.55194 17725 ft 243 kts 81°
2026-05-03 21:04 59.94697 -0.51875 18152 ft 244 kts 81°
2026-05-03 21:04 59.94984 -0.48552 18567 ft 244 kts 81°
2026-05-03 21:05 59.95270 -0.45234 18967 ft 244 kts 82°
2026-05-03 21:05 59.95558 -0.41877 19355 ft 245 kts 82°
2026-05-03 21:05 59.95843 -0.38545 19723 ft 245 kts 82°
2026-05-03 21:05 59.96128 -0.35200 20079 ft 245 kts 82°
2026-05-03 21:06 59.96411 -0.31856 20423 ft 246 kts 83°
2026-05-03 21:06 59.96698 -0.28464 20761 ft 246 kts 83°
2026-05-03 21:06 59.96981 -0.25106 21084 ft 247 kts 83°
2026-05-03 21:06 59.97266 -0.21722 21396 ft 247 kts 83°
2026-05-03 21:07 59.97545 -0.18387 21690 ft 247 kts 83°
2026-05-03 21:07 59.97830 -0.14973 21979 ft 247 kts 84°
2026-05-03 21:07 59.98109 -0.11617 22250 ft 247 kts 84°
2026-05-03 21:07 59.98391 -0.08226 22509 ft 247 kts 84°
2026-05-03 21:08 59.98670 -0.04834 22751 ft 248 kts 84°
2026-05-03 21:08 59.98953 -0.01375 22865 ft 256 kts 84°
2026-05-03 21:08 59.99212 0.02207 22912 ft 266 kts 88°
2026-05-03 21:08 59.99330 0.05931 22931 ft 277 kts 91°
2026-05-03 21:09 59.99423 0.09865 22936 ft 290 kts 91°
2026-05-03 21:09 59.99521 0.13998 22937 ft 303 kts 90°
2026-05-03 21:09 59.99622 0.18265 22936 ft 315 kts 90°
2026-05-03 21:09 59.99730 0.22741 22934 ft 326 kts 90°
2026-05-03 21:10 59.99839 0.27327 22932 ft 336 kts 90°
2026-05-03 21:10 59.99951 0.32065 22930 ft 345 kts 90°
2026-05-03 21:10 60.00064 0.36846 22928 ft 353 kts 90°
2026-05-03 21:10 60.00180 0.41842 22927 ft 360 kts 90°
2026-05-03 21:11 60.00295 0.46834 22925 ft 366 kts 90°
2026-05-03 21:11 60.00412 0.51975 22917 ft 371 kts 90°
2026-05-03 21:11 60.00527 0.57147 22896 ft 375 kts 89°
2026-05-03 21:11 60.00642 0.62369 22873 ft 379 kts 90°
2026-05-03 21:12 60.00755 0.67617 22848 ft 381 kts 90°
2026-05-03 21:12 60.00866 0.72896 22826 ft 384 kts 90°
2026-05-03 21:12 60.00977 0.78259 22816 ft 385 kts 90°
2026-05-03 21:12 60.01087 0.83629 22814 ft 386 kts 90°
2026-05-03 21:13 60.01197 0.88948 22818 ft 389 kts 90°
2026-05-03 21:13 60.01318 0.94407 22817 ft 394 kts 90°
2026-05-03 21:13 60.01431 0.99918 22816 ft 397 kts 90°
2026-05-03 21:13 60.01526 1.05390 22812 ft 395 kts 91°
2026-05-03 21:14 60.01620 1.10841 22812 ft 393 kts 91°
2026-05-03 21:14 60.01713 1.16273 22812 ft 391 kts 91°
2026-05-03 21:14 60.01805 1.21719 22812 ft 390 kts 91°
2026-05-03 21:14 60.01895 1.27134 22812 ft 389 kts 91°
2026-05-03 21:15 60.01981 1.32457 22812 ft 388 kts 91°
2026-05-03 21:15 60.02066 1.37826 22812 ft 387 kts 91°
2026-05-03 21:15 60.02150 1.43241 22812 ft 387 kts 91°
2026-05-03 21:15 60.02231 1.48582 22817 ft 386 kts 91°
2026-05-03 21:16 60.02309 1.53916 22831 ft 385 kts 91°
2026-05-03 21:16 60.02386 1.59294 22846 ft 385 kts 91°
2026-05-03 21:16 60.02461 1.64618 22861 ft 385 kts 91°
2026-05-03 21:16 60.02533 1.69959 22877 ft 384 kts 92°
2026-05-03 21:17 60.02603 1.75263 22882 ft 384 kts 92°
2026-05-03 21:17 60.02648 1.78825 22884 ft 384 kts 92°
2026-05-03 21:17 60.02737 1.85970 22889 ft 384 kts 92°
2026-05-03 21:17 60.02801 1.91308 22892 ft 384 kts 92°
2026-05-03 21:18 60.02862 1.96645 22894 ft 384 kts 92°
2026-05-03 21:18 60.02922 2.01988 22894 ft 385 kts 92°
2026-05-03 21:18 60.02979 2.07308 22894 ft 385 kts 92°
2026-05-03 21:18 60.03034 2.12685 22894 ft 385 kts 92°
2026-05-03 21:19 60.03087 2.18002 22894 ft 385 kts 92°
2026-05-03 21:19 60.03138 2.23363 22894 ft 385 kts 92°
2026-05-03 21:19 60.03188 2.28729 22894 ft 385 kts 92°
2026-05-03 21:19 60.03234 2.34029 22894 ft 385 kts 92°
2026-05-03 21:20 60.03279 2.39424 22894 ft 385 kts 92°
2026-05-03 21:20 60.03321 2.44743 22894 ft 385 kts 92°
2026-05-03 21:20 60.03361 2.50128 22893 ft 385 kts 92°
2026-05-03 21:20 60.03399 2.55439 22893 ft 385 kts 92°
2026-05-03 21:21 60.03434 2.60773 22893 ft 385 kts 92°
2026-05-03 21:21 60.03466 2.65809 22893 ft 385 kts 94°
2026-05-03 21:21 60.03497 2.71098 22894 ft 385 kts 94°
2026-05-03 21:21 60.03527 2.76474 22894 ft 385 kts 94°
2026-05-03 21:22 60.03555 2.81779 22894 ft 385 kts 94°
2026-05-03 21:22 60.03581 2.87173 22894 ft 384 kts 94°
2026-05-03 21:22 60.03604 2.92442 22894 ft 384 kts 94°
2026-05-03 21:22 60.03625 2.97782 22894 ft 384 kts 94°
2026-05-03 21:23 60.03644 3.03117 22894 ft 384 kts 95°
2026-05-03 21:23 60.03661 3.08444 22889 ft 379 kts 95°
2026-05-03 21:23 60.03679 3.13721 22886 ft 373 kts 95°
2026-05-03 21:23 60.03692 3.18879 22600 ft 371 kts 95°
2026-05-03 21:24 60.03703 3.24008 22252 ft 369 kts 95°
2026-05-03 21:24 60.03712 3.29142 21900 ft 367 kts 95°
2026-05-03 21:24 60.03719 3.34226 21551 ft 366 kts 95°
2026-05-03 21:24 60.03723 3.39260 21202 ft 364 kts 95°
2026-05-03 21:25 60.03725 3.44307 20852 ft 362 kts 95°
2026-05-03 21:25 60.03726 3.49356 20499 ft 360 kts 95°
2026-05-03 21:25 60.03726 3.54310 20145 ft 355 kts 95°
2026-05-03 21:25 60.03725 3.59171 19795 ft 351 kts 95°
2026-05-03 21:26 60.03722 3.64032 19440 ft 347 kts 95°
2026-05-03 21:26 60.03716 3.68793 19089 ft 342 kts 96°
2026-05-03 21:26 60.03709 3.73544 18736 ft 339 kts 96°
2026-05-03 21:26 60.03699 3.78213 18386 ft 336 kts 95°
2026-05-03 21:27 60.03687 3.82822 18038 ft 333 kts 95°
2026-05-03 21:27 60.03674 3.87431 17687 ft 331 kts 95°
2026-05-03 21:27 60.03659 3.92042 17334 ft 328 kts 95°
2026-05-03 21:27 60.03881 3.96598 16958 ft 333 kts 77°
2026-05-03 21:28 60.05034 4.00537 16605 ft 333 kts 49°
2026-05-03 21:28 60.06683 4.03696 16274 ft 328 kts 43°
2026-05-03 21:28 60.08380 4.06774 15919 ft 324 kts 43°
2026-05-03 21:28 60.10027 4.09748 15570 ft 321 kts 43°
2026-05-03 21:29 60.11683 4.12747 15212 ft 316 kts 43°
2026-05-03 21:29 60.13306 4.15692 14859 ft 312 kts 43°
2026-05-03 21:29 60.14898 4.18587 14507 ft 308 kts 43°
2026-05-03 21:29 60.16481 4.21474 14153 ft 305 kts 43°
2026-05-03 21:30 60.18026 4.24297 13803 ft 301 kts 43°
2026-05-03 21:30 60.19558 4.27100 13455 ft 299 kts 43°
2026-05-03 21:30 60.21080 4.29892 13104 ft 296 kts 43°
2026-05-03 21:30 60.22605 4.32691 12712 ft 296 kts 43°
2026-05-03 21:31 60.24118 4.35475 12315 ft 295 kts 43°
2026-05-03 21:31 60.25624 4.38248 11919 ft 294 kts 43°
2026-05-03 21:31 60.27124 4.41017 11522 ft 294 kts 43°
2026-05-03 21:31 60.28645 4.43825 11119 ft 293 kts 43°
2026-05-03 21:32 60.30146 4.46601 10720 ft 293 kts 43°
2026-05-03 21:32 60.31635 4.49359 10323 ft 292 kts 42°
2026-05-03 21:32 60.33115 4.52102 9927 ft 291 kts 42°
2026-05-03 21:32 60.34599 4.54858 9529 ft 290 kts 41°
2026-05-03 21:33 60.36054 4.57632 9129 ft 289 kts 45°
2026-05-03 21:33 60.37212 4.60963 8725 ft 287 kts 59°
2026-05-03 21:33 60.38181 4.64417 8333 ft 285 kts 60°
2026-05-03 21:33 60.39218 4.67861 8021 ft 278 kts 52°
2026-05-03 21:34 60.40717 4.69984 7935 ft 258 kts 14°
2026-05-03 21:34 60.42450 4.69972 7949 ft 249 kts 345°
2026-05-03 21:34 60.44132 4.69086 7927 ft 247 kts 341°
2026-05-03 21:34 60.45765 4.68218 7912 ft 244 kts 348°
2026-05-03 21:35 60.47443 4.68128 7920 ft 242 kts 359°
2026-05-03 21:35 60.49125 4.68260 7861 ft 241 kts 359°
2026-05-03 21:35 60.50791 4.68790 7536 ft 245 kts 20°
2026-05-03 21:35 60.52144 4.70783 7137 ft 245 kts 50°
2026-05-03 21:36 60.52853 4.73850 6739 ft 243 kts 80°
2026-05-03 21:36 60.52778 4.77243 6346 ft 238 kts 103°
2026-05-03 21:36 60.52416 4.80492 5958 ft 238 kts 104°
2026-05-03 21:36 60.52040 4.83784 5561 ft 242 kts 104°
2026-05-03 21:37 60.51647 4.87165 5178 ft 251 kts 104°
2026-05-03 21:37 60.51236 4.90654 4795 ft 260 kts 104°
2026-05-03 21:37 60.50806 4.94245 4408 ft 265 kts 104°
2026-05-03 21:37 60.50377 4.97786 4122 ft 250 kts 104°
2026-05-03 21:38 60.49976 5.01084 4009 ft 230 kts 104°
2026-05-03 21:38 60.49599 5.04186 3725 ft 220 kts 104°
2026-05-03 21:38 60.49239 5.07107 3413 ft 211 kts 104°
2026-05-03 21:38 60.48888 5.09925 3111 ft 202 kts 104°
2026-05-03 21:39 60.48437 5.12435 3023 ft 176 kts 121°
2026-05-03 21:39 60.47807 5.14540 3052 ft 175 kts 125°
2026-05-03 21:39 60.46821 5.15885 3031 ft 175 kts 174°
2026-05-03 21:39 60.45614 5.16138 3012 ft 173 kts 175°
2026-05-03 21:40 60.44516 5.16615 2980 ft 148 kts 171°
2026-05-03 21:40 60.43567 5.16994 2920 ft 132 kts 175°
2026-05-03 21:40 60.42661 5.17280 2763 ft 132 kts 175°
2026-05-03 21:40 60.41758 5.17564 2472 ft 131 kts 174°
2026-05-03 21:41 60.40878 5.17868 2173 ft 126 kts 174°
2026-05-03 21:41 60.40029 5.18175 1956 ft 122 kts 173°
2026-05-03 21:41 60.39196 5.18470 1850 ft 120 kts 174°
2026-05-03 21:41 60.38383 5.18727 1758 ft 118 kts 175°
2026-05-03 21:42 60.37571 5.18965 1669 ft 119 kts 173°
2026-05-03 21:42 60.36755 5.19276 1550 ft 120 kts 172°
2026-05-03 21:42 60.35929 5.19573 1314 ft 120 kts 173°
2026-05-03 21:42 60.35113 5.19877 1133 ft 118 kts 173°
2026-05-03 21:43 60.34309 5.20153 973 ft 116 kts 173°
2026-05-03 21:43 60.33522 5.20402 829 ft 114 kts 173°
2026-05-03 21:43 60.32744 5.20665 688 ft 113 kts 172°
2026-05-03 21:43 60.31972 5.20921 543 ft 112 kts 172°
2026-05-03 21:44 60.31206 5.21191 390 ft 112 kts 172°
2026-05-03 21:44 60.30438 5.21450 237 ft 112 kts 172°
2026-05-03 21:44 60.29703 5.21690 176 ft 87 kts 169°
2026-05-03 21:44 60.29286 5.21830 175 ft 43 kts 171°
2026-05-03 21:45 60.29053 5.21905 175 ft 24 kts 170°
2026-05-03 21:45 60.28938 5.21955 175 ft 8 kts 153°
2026-05-03 21:45 60.28917 5.22066 175 ft 8 kts 85°
2026-05-03 21:45 60.28924 5.22180 175 ft 7 kts 82°
2026-05-03 21:46 60.28934 5.22301 175 ft 6 kts 80°
2026-05-03 21:46 60.28934 5.22365 175 ft 6 kts 110°
2026-05-03 21:46 60.28867 5.22413 175 ft 14 kts 165°
2026-05-03 21:46 60.28834 5.22438 175 ft 1 kts 114°
2026-05-03 21:47 60.28835 5.22461 175 ft 4 kts 68°
2026-05-03 21:47 60.28849 5.22516 175 ft 1 kts 60°
2026-05-03 21:47 60.28855 5.22536 175 ft 3 kts 59°
2026-05-03 21:47 60.28862 5.22560 175 ft 0 kts 59°